Regional Weather Roundup
Issued by NWS

Home | Current Version | Previous Version | Graphics & Text | Print | Product List | Glossary Off
Versions: 1 2 3 4 5 6 7 8 9 10 11 12 13 14 15 16 17 18 19 20 21 22 23 24 25 26 27 28 29 30 31 32 33 34 35 36 37 38 39 40 41 42 43 44 45 46 47 48 49 50

000
ASUS43 KDMX 282303
RWRIA

WEATHER ROUNDUP FOR IOWA
NATIONAL WEATHER SERVICE DES MOINES IA
600 PM CDT SAT MAY 28 2016

NOTE: "FAIR" INDICATES FEW OR NO CLOUDS BELOW 12,000 FEET WITH NO
SIGNIFICANT WEATHER AND/OR OBSTRUCTIONS TO VISIBILITY.

* - THESE STATIONS ARE NOT NWS STATIONS...THUS NOT UNDER NWS
QUALITY CONTROL.  THEY ALSO DO NOT REPORT WEATHER SUCH
AS PRECIPITATION OR FOG.

IAZ001>003-012>014-020>022-031>034-043>046-290000-
   NORTHWEST IOWA

CITY           SKY/WX    TMP DP  RH WIND       PRES   REMARKS
CARROLL *      CLOUDY    70  59  68 W24G30    29.77S
CHEROKEE *     PTSUNNY   70  59  67 W6        29.75S
DENISON *      MOSUNNY   63  61  94 SW15G22   29.77R FOG
LE MARS *      CLOUDY    68  61  77 W17       29.78R
ORANGE CITY *  MOSUNNY   64  63  94 N7        29.77R
SHELDON *      RAIN      66  63  88 N9G18     29.75R
SIOUX CITY     CLOUDY    66  59  78 NW17      29.79R
SPENCER        CLOUDY    64  60  87 N18       29.76R
STORM LAKE *     N/A     73  55  53 SW13      29.76R
$$

IAZ055>058-069>071-079>083-090>094-290000-
   SOUTHWEST IOWA

CITY           SKY/WX    TMP DP  RH WIND       PRES   REMARKS
ATLANTIC *     CLOUDY    70  57  64 W18       29.82R
AUDUBON *      LGT RAIN  66  61  82 SW15G21   29.82R
CLARINDA *       N/A     73  61  64 MISG      29.87R
COUNCIL BLFS * MOSUNNY   72  55  56 W17G28    29.84R
CRESTON *      PTSUNNY   73  59  60 SW16G23   29.85S
HARLAN  *      PTSUNNY   70  57  64 W20G30    29.85R
LAMONI         LGT RAIN  72  60  66 SW14      29.86S
RED OAK *      MOSUNNY   73  57  56 W15G24    29.84S
SHENANDOAH *   PTSUNNY   73  61  64 SW13G18   29.86R
$$

IAZ047>049-059>061-072>074-084-290000-
   CENTRAL IOWA

CITY           SKY/WX    TMP DP  RH WIND       PRES   REMARKS
AMES           PTSUNNY   71  60  68 SW21      29.79R
ANKENY *       PTSUNNY   73  61  64 SW14G22   29.80R
BOONE *        PTSUNNY   73  61  64 SW15G22   29.78R
CHARITON *     PTSUNNY   72  61  68 SW20      29.84S
DES MOINES     MOSUNNY   75  59  57 SW15G24   29.80R
GRINNELL*      MOSUNNY   72  61  68 SW15      29.82S
KNOXVILLE *    SUNNY     73  59  60 SW17      29.81S
MARSHALLTOWN   CLOUDY    70  62  76 SW17G25   29.79R
NEWTON *       PTSUNNY   72  63  73 SW17G23   29.81R
PELLA *        MOSUNNY   75  59  58 SW18      29.84R
PERRY *          N/A     73  61  64 SW21      29.79S
$$

IAZ004>006-015-016-023>025-035-036-290000-
   NORTH CENTRAL IOWA

CITY           SKY/WX    TMP DP  RH WIND       PRES   REMARKS
ALGONA *       DRIZZLE   66  63  88 NE10      29.76R
CLARION *      CLOUDY    72  63  73 S13G20    29.76S
ESTHERVILLE    TSTM      61  60  97 NE12      29.77S FOG
FORT DODGE *   CLOUDY    73  57  56 SW12G17   29.77S
MASON CITY     CLOUDY    65  62  90 SE7       29.79R
FOREST CITY *  RAIN      64  63  94 NE6       29.77S
WEBSTER CITY * PTSUNNY   72  61  68 SW20      29.75R
IOWA FALLS *   RAIN      66  61  82 SW9       29.80R
$$

IAZ007>011-017>019-026>030-037>042-050>054-066-290000-
   NORTHEAST IOWA

CITY           SKY/WX    TMP DP  RH WIND       PRES   REMARKS
CEDAR RAPIDS   LGT RAIN  73  63  70 SW18G29   29.80R
CHARLES CITY * PTSUNNY   72  64  78 SW10      29.79R
CLINTON *      CLOUDY    72  67  84 SW12      29.83S
DECORAH *      MOSUNNY   68  64  88 S9G16     29.77F
DUBUQUE        CLOUDY    72  66  81 SW14      29.80S
MONTICELLO *   CLOUDY    75  61  60 SW18G26   29.80R
OELWEIN *      CLOUDY    68  64  88 SW13      29.80S
WATERLOO       PTSUNNY   71  61  70 SW16G24   29.78R
$$

IAZ064-065-067-068-078-290000-
   EAST CENTRAL IOWA

CITY           SKY/WX    TMP DP  RH WIND       PRES   REMARKS
DAVENPORT      CLOUDY    76  67  73 SW10      29.83R
IOWA CITY      MOSUNNY   78  59  51 SW18G28   29.82R
MT. PLEASANT * MOSUNNY   81  63  54 SW21G30   29.84S HX  82
MUSCATINE *    CLOUDY    81  61  50 SW16G26   29.82S HX  81
QUAD CITIES    CLOUDY    75  68  78 S6        29.82S
$$

IAZ062-063-075>077-085>089-095>099-290000-
   SOUTHEAST IOWA

CITY           SKY/WX    TMP DP  RH WIND       PRES   REMARKS
BURLINGTON     CLOUDY    79  62  56 SW21G26   29.84R HX  80
FAIRFIELD *      N/A    N/A N/A N/A MISG        N/A
FORT MADISON * MOSUNNY   79  61  53 SW16G22   29.86R HX  80
KEOKUK *       MOSUNNY   81  61  50 SW23G29   29.84S HX  81
OSKALOOSA *    CLOUDY    74  59  59 SW22      29.84S
OTTUMWA        CLOUDY    75  60  59 SW16G26   29.84R
WASHINGTON *   MOSUNNY   77 -33   1 SW20G29   29.84R
$$

ABBREVIATIONS USED IN REMARKS
   TC - TEMPERATURES IN CELSIUS
  WCI - WIND CHILL INDEX
   HX - HEAT INDEX
  VSB - VISIBILITY
$$





USA.gov is the U.S. government's official web portal to all federal, state and local government web resources and services.